Date,TemperatureHighF,TemperatureAvgF,TemperatureLowF,DewpointHighF,DewpointAvgF,DewpointLowF,HumidityHigh,HumidityAvg,HumidityLow,PressureMaxIn,PressureMinIn,WindSpeedMaxMPH,WindSpeedAvgMPH,GustSpeedMaxMPH,PrecipitationSumIn
2013-3-1,33.3,31.4,29.5,33.0,31.2,29.2,99,99,99,29.89,29.81,16,9,16,0.05
2013-3-2,32.2,28.8,26.4,30.1,23.9,19.8,99,82,65,29.95,29.90,19,10,19,0.05
2013-3-3,42.3,34.1,28.8,28.9,24.8,21.3,93,70,56,29.92,29.81,9,3,12,0.00
2013-3-4,46.2,41.0,37.2,38.0,36.1,32.7,91,83,72,29.73,29.59,7,2,7,0.00
2013-3-5,39.0,32.3,30.6,36.9,31.5,27.6,99,97,88,29.76,29.55,28,13,28,0.04
2013-3-6,32.7,30.6,28.6,30.6,28.9,26.8,98,93,87,30.09,29.75,27,13,27,0.00
2013-3-7,41.9,36.1,28.9,34.7,31.3,27.4,98,83,73,30.17,30.10,8,2,8,0.00
2013-3-8,57.4,45.9,0.0,42.4,37.8,0.0,95,72,57,30.21,30.03,9,2,9,0.00
2013-3-11,35.8,34.8,34.2,35.5,34.5,33.3,99,99,96,29.69,29.49,20,8,20,0.04
2013-3-12,38.5,36.8,35.4,30.5,29.3,28.8,77,74,71,29.87,29.85,21,10,21,0.00
2013-3-13,37.8,34.0,29.5,26.6,23.4,21.0,76,66,56,30.13,30.09,21,10,21,0.00
2013-3-14,49.1,41.1,32.9,37.1,33.0,29.0,94,74,62,30.02,29.90,15,4,15,0.00
2013-3-15,65.1,58.5,49.6,56.6,51.9,46.5,93,80,65,29.73,29.42,10,4,10,0.00
2013-3-16,44.1,40.5,36.9,43.8,39.7,35.8,99,97,94,29.81,29.59,22,10,22,0.00
2013-3-18,45.1,41.2,37.8,43.1,40.3,32.7,99,97,80,29.68,29.45,20,10,21,0.06
2013-3-19,46.4,42.1,34.7,29.4,25.6,22.5,68,53,43,29.94,29.90,20,8,21,0.00
2013-3-20,32.5,28.8,25.7,18.6,15.7,12.5,66,58,50,29.97,29.84,25,13,25,0.00
2013-3-21,41.2,32.8,20.7,22.1,18.7,13.7,77,57,46,29.87,29.75,12,4,12,0.00
2013-3-22,43.2,39.0,36.1,28.6,26.2,24.3,74,61,51,29.78,29.75,9,2,9,0.00
2013-3-23,56.5,48.4,39.4,37.8,34.7,30.8,86,61,44,29.80,29.60,11,5,11,0.00
2013-3-24,34.0,31.9,30.6,33.2,31.7,30.0,99,99,99,29.06,28.84,20,3,20,0.06
2013-3-25,34.0,31.2,28.4,33.6,30.8,28.2,99,99,93,29.48,29.06,25,6,25,0.13
2013-3-26,37.4,33.4,31.5,27.7,27.1,26.4,84,77,68,30.07,30.04,9,3,9,0.04
2013-3-27,47.3,42.0,32.9,33.4,30.6,26.8,92,65,51,30.14,30.06,14,5,14,0.00
2013-3-28,48.7,44.5,39.6,38.2,36.8,35.6,90,75,61,30.14,30.13,9,4,9,0.00
2013-3-29,62.6,56.2,45.0,50.4,47.3,43.7,99,73,61,30.02,29.94,8,2,8,0.00
2013-3-30,60.3,57.2,53.6,52.9,50.3,48.8,88,78,73,29.79,29.70,11,4,11,0.00
2013-3-31,66.9,59.3,48.9,56.9,50.4,42.3,92,74,53,29.67,29.58,17,6,17,0.00